NKS9918 KFLL-KGYR

Flight info

Callsign NKS9918
Flight time 4h 52m
Altitude 38000
Route BNICE2 DOLIE Y280 LEV IAH JCT ELP SSO SUNSS8
Aircraft A21N/M-SDE2E3FGHIRWXY/LB1

Departure

Time 2026-05-04 19:34
Airport Fort Lauderdale Hollywood International Airport (KFLL)

Arrival

Time 2026-05-05 00:26
Airport Phoenix Goodyear Airport (KGYR)
Time Latitude Longitude Altitude Speed Heading
2026-05-04 18:23 26.06854 -80.14868 21 ft 0 kts
2026-05-04 19:27 26.06856 -80.14868 21 ft 1 kts 360°
2026-05-04 19:27 26.06865 -80.14868 21 ft 3 kts 360°
2026-05-04 19:28 26.06898 -80.14879 21 ft 7 kts 321°
2026-05-04 19:28 26.06911 -80.14936 21 ft 9 kts 270°
2026-05-04 19:28 26.06912 -80.15018 21 ft 12 kts 271°
2026-05-04 19:28 26.06912 -80.15095 21 ft 7 kts 263°
2026-05-04 19:29 26.06872 -80.15131 21 ft 9 kts 187°
2026-05-04 19:29 26.06798 -80.15130 21 ft 12 kts 178°
2026-05-04 19:29 26.06707 -80.15147 25 ft 16 kts 229°
2026-05-04 19:29 26.06696 -80.15275 22 ft 17 kts 271°
2026-05-04 19:30 26.06697 -80.15412 22 ft 19 kts 270°
2026-05-04 19:30 26.06699 -80.15565 21 ft 21 kts 270°
2026-05-04 19:30 26.06699 -80.15678 21 ft 12 kts 269°
2026-05-04 19:30 26.06698 -80.15778 21 ft 5 kts 269°
2026-05-04 19:31 26.06695 -80.15795 21 ft 0 kts 250°
2026-05-04 19:32 26.06690 -80.15804 21 ft 3 kts 230°
2026-05-04 19:33 26.06630 -80.15823 22 ft 15 kts 177°
2026-05-04 19:33 26.06587 -80.15725 26 ft 18 kts 90°
2026-05-04 19:33 26.06589 -80.15364 27 ft 95 kts 91°
2026-05-04 19:33 26.06587 -80.14215 67 ft 196 kts 92°
2026-05-04 19:34 26.06608 -80.12794 1822 ft 165 kts 85°
2026-05-04 19:34 26.06549 -80.11511 2765 ft 184 kts 87°
2026-05-04 19:34 26.06647 -80.10064 3454 ft 199 kts 70°
2026-05-04 19:34 26.07475 -80.08682 3743 ft 237 kts 47°
2026-05-04 19:35 26.08682 -80.07315 3898 ft 254 kts 37°
2026-05-04 19:35 26.10231 -80.06392 4182 ft 250 kts 19°
2026-05-04 19:35 26.11902 -80.05797 5117 ft 256 kts 16°
2026-05-04 19:35 26.13635 -80.05178 6060 ft 266 kts 15°
2026-05-04 19:36 26.15464 -80.04801 7022 ft 269 kts 357°
2026-05-04 19:36 26.17307 -80.05176 7927 ft 273 kts 339°
2026-05-04 19:36 26.19109 -80.05904 8872 ft 279 kts 335°
2026-05-04 19:36 26.20872 -80.06755 9849 ft 279 kts 326°
2026-05-04 19:37 26.22400 -80.08102 10494 ft 288 kts 308°
2026-05-04 19:37 26.23482 -80.10048 10842 ft 307 kts 291°
2026-05-04 19:37 26.24274 -80.12327 11138 ft 329 kts 288°
2026-05-04 19:37 26.25095 -80.14810 11429 ft 351 kts 287°
2026-05-04 19:38 26.25709 -80.17509 11714 ft 369 kts 278°
2026-05-04 19:38 26.26117 -80.20381 12183 ft 379 kts 277°
2026-05-04 19:38 26.26517 -80.23303 12828 ft 383 kts 277°
2026-05-04 19:38 26.26922 -80.26206 13563 ft 386 kts 277°
2026-05-04 19:39 26.27341 -80.29183 14219 ft 388 kts 277°
2026-05-04 19:39 26.27763 -80.32163 14829 ft 392 kts 277°
2026-05-04 19:39 26.28192 -80.35181 15545 ft 395 kts 277°
2026-05-04 19:39 26.28621 -80.38211 16242 ft 398 kts 277°
2026-05-04 19:40 26.29055 -80.41284 16862 ft 403 kts 277°
2026-05-04 19:40 26.29493 -80.44382 17495 ft 405 kts 277°
2026-05-04 19:40 26.29932 -80.47491 18113 ft 408 kts 277°
2026-05-04 19:40 26.30370 -80.50589 18622 ft 411 kts 277°
2026-05-04 19:41 26.30816 -80.53751 19113 ft 413 kts 277°
2026-05-04 19:41 26.31263 -80.56923 19640 ft 416 kts 277°
2026-05-04 19:41 26.31712 -80.60123 20145 ft 419 kts 277°
2026-05-04 19:41 26.32162 -80.63346 20629 ft 422 kts 277°
2026-05-04 19:42 26.32616 -80.66588 21175 ft 425 kts 277°
2026-05-04 19:42 26.33072 -80.69854 21770 ft 429 kts 277°
2026-05-04 19:42 26.33534 -80.73160 22359 ft 431 kts 277°
2026-05-04 19:42 26.33997 -80.76483 22887 ft 435 kts 277°
2026-05-04 19:43 26.34465 -80.79840 23387 ft 439 kts 277°
2026-05-04 19:43 26.34926 -80.83165 23824 ft 442 kts 277°
2026-05-04 19:43 26.35402 -80.86565 24231 ft 445 kts 278°
2026-05-04 19:43 26.36163 -80.89923 24641 ft 448 kts 287°
2026-05-04 19:44 26.37487 -80.93081 25205 ft 449 kts 297°
2026-05-04 19:44 26.39334 -80.95893 25816 ft 452 kts 307°
2026-05-04 19:44 26.41572 -80.98362 26435 ft 451 kts 312°
2026-05-04 19:44 26.43863 -81.00741 27052 ft 448 kts 312°
2026-05-04 19:45 26.46136 -81.03103 27679 ft 445 kts 312°
2026-05-04 19:45 26.48361 -81.05429 28279 ft 442 kts 311°
2026-05-04 19:45 26.50601 -81.07778 28876 ft 440 kts 311°
2026-05-04 19:45 26.52824 -81.10118 29481 ft 437 kts 311°
2026-05-04 19:46 26.55023 -81.12438 30078 ft 434 kts 311°
2026-05-04 19:46 26.57211 -81.14746 30543 ft 432 kts 311°
2026-05-04 19:46 26.59392 -81.17046 30972 ft 430 kts 311°
2026-05-04 19:46 26.61571 -81.19344 31463 ft 428 kts 311°
2026-05-04 19:47 26.63734 -81.21632 31882 ft 427 kts 310°
2026-05-04 19:47 26.65887 -81.23918 32265 ft 426 kts 310°
2026-05-04 19:47 26.68032 -81.26199 32632 ft 425 kts 310°
2026-05-04 19:47 26.70180 -81.28482 33000 ft 425 kts 310°
2026-05-04 19:48 26.72288 -81.30735 33345 ft 424 kts 310°
2026-05-04 19:48 26.74420 -81.33025 33703 ft 423 kts 310°
2026-05-04 19:48 26.76547 -81.35302 34058 ft 423 kts 310°
2026-05-04 19:48 26.78670 -81.37567 34357 ft 422 kts 310°
2026-05-04 19:49 26.80803 -81.39836 34632 ft 422 kts 310°
2026-05-04 19:49 26.82928 -81.42106 34898 ft 422 kts 310°
2026-05-04 19:49 26.85056 -81.44378 35161 ft 422 kts 310°
2026-05-04 19:49 26.87180 -81.46647 35418 ft 422 kts 309°
2026-05-04 19:50 26.89307 -81.48919 35669 ft 422 kts 309°
2026-05-04 19:50 26.91400 -81.51155 35907 ft 422 kts 309°
2026-05-04 19:50 26.93523 -81.53423 36191 ft 421 kts 309°
2026-05-04 19:50 26.95644 -81.55684 36431 ft 421 kts 309°
2026-05-04 19:51 26.97772 -81.57947 36661 ft 421 kts 309°
2026-05-04 19:51 26.99896 -81.60214 36885 ft 421 kts 309°
2026-05-04 19:51 27.02016 -81.62478 37101 ft 420 kts 309°
2026-05-04 19:51 27.04133 -81.64742 37305 ft 420 kts 309°
2026-05-04 19:52 27.06247 -81.67010 37518 ft 420 kts 309°
2026-05-04 19:52 27.07644 -81.68511 37650 ft 420 kts 309°
2026-05-04 19:52 27.10442 -81.71516 37902 ft 419 kts 309°
2026-05-04 19:52 27.12551 -81.73781 38052 ft 420 kts 309°
2026-05-04 19:53 27.14663 -81.76050 38091 ft 419 kts 309°
2026-05-04 19:53 27.18159 -81.79815 38056 ft 418 kts 309°
2026-05-04 19:54 27.22366 -81.84343 38047 ft 418 kts 309°
2026-05-04 19:54 27.26459 -81.88960 38068 ft 412 kts 303°
2026-05-04 19:55 27.29165 -81.94474 38050 ft 398 kts 284°
2026-05-04 19:55 27.30377 -82.00477 38045 ft 395 kts 278°
2026-05-04 19:56 27.31476 -82.06541 38041 ft 396 kts 278°
2026-05-04 19:56 27.32600 -82.12607 38038 ft 396 kts 278°
2026-05-04 19:57 27.33720 -82.18669 38034 ft 396 kts 278°
2026-05-04 19:57 27.34841 -82.24702 38034 ft 396 kts 278°
2026-05-04 19:58 27.35964 -82.30766 38036 ft 396 kts 278°
2026-05-04 19:58 27.37084 -82.36829 38039 ft 395 kts 278°
2026-05-04 19:59 27.38198 -82.42856 38044 ft 395 kts 279°
2026-05-04 19:59 27.39317 -82.48907 38038 ft 395 kts 279°
2026-05-04 20:00 27.40427 -82.54965 38042 ft 395 kts 279°
2026-05-04 20:00 27.41545 -82.61021 38044 ft 394 kts 279°
2026-05-04 20:01 27.42681 -82.67066 38042 ft 395 kts 279°
2026-05-04 20:01 27.43812 -82.73088 38032 ft 395 kts 279°
2026-05-04 20:02 27.44945 -82.79152 38032 ft 395 kts 279°
2026-05-04 20:02 27.46067 -82.85205 38038 ft 394 kts 279°
2026-05-04 20:03 27.47181 -82.91219 38029 ft 394 kts 279°
2026-05-04 20:03 27.48295 -82.97266 38028 ft 395 kts 279°
2026-05-04 20:04 27.49418 -83.03342 38025 ft 396 kts 279°
2026-05-04 20:04 27.50532 -83.09431 38023 ft 396 kts 279°
2026-05-04 20:05 27.51638 -83.15483 38021 ft 396 kts 279°
2026-05-04 20:05 27.52745 -83.21572 38027 ft 396 kts 279°
2026-05-04 20:06 27.53850 -83.27654 38027 ft 396 kts 279°
2026-05-04 20:06 27.54962 -83.33745 38034 ft 396 kts 279°
2026-05-04 20:07 27.56063 -83.39802 38035 ft 396 kts 279°
2026-05-04 20:07 27.57165 -83.45897 38038 ft 396 kts 279°
2026-05-04 20:08 27.58268 -83.51994 38039 ft 396 kts 279°
2026-05-04 20:08 27.59356 -83.58050 38038 ft 396 kts 280°
2026-05-04 20:09 27.60435 -83.64153 38039 ft 396 kts 280°
2026-05-04 20:09 27.61522 -83.70255 38039 ft 396 kts 280°
2026-05-04 20:10 27.62613 -83.76345 38042 ft 396 kts 280°
2026-05-04 20:10 27.63697 -83.82445 38042 ft 396 kts 280°
2026-05-04 20:11 27.64770 -83.88503 38042 ft 396 kts 280°
2026-05-04 20:11 27.65849 -83.94598 38044 ft 396 kts 281°
2026-05-04 20:12 27.66924 -84.00688 38047 ft 396 kts 281°
2026-05-04 20:12 27.68005 -84.06784 38047 ft 396 kts 281°
2026-05-04 20:13 27.69073 -84.12838 38045 ft 396 kts 280°
2026-05-04 20:13 27.70135 -84.18941 38047 ft 395 kts 280°
2026-05-04 20:14 27.71202 -84.25033 38049 ft 395 kts 280°
2026-05-04 20:14 27.72264 -84.31130 38042 ft 395 kts 281°
2026-05-04 20:15 27.73316 -84.37211 38047 ft 395 kts 281°
2026-05-04 20:15 27.74358 -84.43264 38050 ft 395 kts 281°
2026-05-04 20:16 27.75410 -84.49350 38050 ft 395 kts 281°
2026-05-04 20:16 27.76459 -84.55437 38054 ft 395 kts 281°
2026-05-04 20:17 27.77519 -84.61527 38052 ft 395 kts 281°
2026-05-04 20:17 27.78566 -84.67619 38045 ft 395 kts 281°
2026-05-04 20:18 27.79603 -84.73695 38048 ft 394 kts 281°
2026-05-04 20:18 27.80634 -84.79741 38048 ft 394 kts 282°
2026-05-04 20:19 27.81671 -84.85832 38048 ft 394 kts 281°
2026-05-04 20:19 27.82702 -84.91914 38048 ft 394 kts 281°
2026-05-04 20:20 27.83731 -84.98002 38051 ft 394 kts 281°
2026-05-04 20:20 27.84752 -85.04084 38051 ft 394 kts 281°
2026-05-04 20:21 27.85765 -85.10154 38047 ft 392 kts 282°
2026-05-04 20:21 27.87275 -85.19217 38051 ft 392 kts 282°
2026-05-04 20:22 27.88330 -85.25267 38046 ft 392 kts 284°
2026-05-04 20:22 27.89980 -85.31133 38048 ft 391 kts 289°
2026-05-04 20:23 27.91754 -85.36960 38047 ft 391 kts 289°
2026-05-04 20:23 27.93517 -85.42787 38031 ft 391 kts 289°
2026-05-04 20:24 27.95267 -85.48607 38046 ft 390 kts 290°
2026-05-04 20:24 27.97007 -85.54372 38048 ft 390 kts 290°
2026-05-04 20:25 27.98755 -85.60180 38044 ft 390 kts 290°
2026-05-04 20:25 28.00484 -85.66003 38071 ft 390 kts 289°
2026-05-04 20:26 28.02225 -85.71839 38050 ft 391 kts 289°
2026-05-04 20:26 28.03976 -85.77671 38051 ft 391 kts 289°
2026-05-04 20:27 28.05709 -85.83476 38050 ft 391 kts 289°
2026-05-04 20:27 28.07470 -85.89307 38047 ft 391 kts 290°
2026-05-04 20:28 28.09212 -85.95146 38044 ft 391 kts 289°
2026-05-04 20:28 28.10926 -86.00958 38044 ft 391 kts 289°
2026-05-04 20:29 28.12661 -86.06800 38045 ft 391 kts 289°
2026-05-04 20:29 28.14409 -86.12635 38048 ft 391 kts 290°
2026-05-04 20:30 28.16150 -86.18474 38034 ft 390 kts 290°
2026-05-04 20:30 28.17854 -86.24246 38046 ft 387 kts 290°
2026-05-04 20:31 28.19548 -86.30044 38049 ft 387 kts 290°
2026-05-04 20:31 28.21233 -86.35850 38049 ft 387 kts 290°
2026-05-04 20:32 28.22935 -86.41642 38049 ft 387 kts 290°
2026-05-04 20:32 28.24645 -86.47435 38050 ft 387 kts 290°
2026-05-04 20:33 28.26329 -86.53210 38050 ft 387 kts 290°
2026-05-04 20:33 28.28026 -86.59001 38043 ft 385 kts 290°
2026-05-04 20:34 28.29694 -86.64749 38053 ft 383 kts 290°
2026-05-04 20:34 28.31363 -86.70485 38056 ft 383 kts 290°
2026-05-04 20:35 28.33043 -86.76218 38053 ft 382 kts 291°
2026-05-04 20:35 28.34748 -86.81934 38066 ft 382 kts 291°
2026-05-04 20:36 28.36439 -86.87659 38058 ft 382 kts 291°
2026-05-04 20:36 28.38117 -86.93380 38055 ft 382 kts 291°
2026-05-04 20:37 28.39772 -86.99074 38058 ft 379 kts 291°
2026-05-04 20:37 28.41420 -87.04761 38059 ft 378 kts 291°
2026-05-04 20:38 28.43063 -87.10448 38055 ft 378 kts 291°
2026-05-04 20:38 28.44437 -87.15177 38055 ft 378 kts 291°
2026-05-04 20:39 28.46348 -87.21785 38058 ft 378 kts 291°
2026-05-04 20:39 28.48007 -87.27471 38063 ft 378 kts 291°
2026-05-04 20:40 28.49371 -87.32196 38062 ft 378 kts 291°
2026-05-04 20:40 28.50998 -87.37862 38056 ft 374 kts 291°
2026-05-04 20:41 28.52617 -87.43487 38060 ft 374 kts 291°
2026-05-04 20:41 28.54236 -87.49112 38061 ft 374 kts 291°
2026-05-04 20:42 28.55838 -87.54700 38064 ft 374 kts 291°
2026-05-04 20:42 28.57447 -87.60327 38065 ft 374 kts 291°
2026-05-04 20:43 28.59059 -87.65970 38065 ft 374 kts 291°
2026-05-04 20:43 28.60649 -87.71564 38043 ft 374 kts 291°
2026-05-04 20:44 28.62238 -87.77183 38062 ft 372 kts 291°
2026-05-04 20:44 28.63832 -87.82792 38061 ft 372 kts 291°
2026-05-04 20:45 28.65411 -87.88363 38091 ft 370 kts 291°
2026-05-04 20:45 28.66994 -87.93936 38069 ft 369 kts 291°
2026-05-04 20:46 28.68569 -87.99507 38066 ft 369 kts 291°
2026-05-04 20:46 28.70129 -88.05044 38063 ft 369 kts 291°
2026-05-04 20:47 28.71698 -88.10616 38054 ft 368 kts 291°
2026-05-04 20:47 28.73256 -88.16157 38064 ft 367 kts 291°
2026-05-04 20:48 28.74814 -88.21706 38064 ft 367 kts 291°
2026-05-04 20:48 28.76360 -88.27228 38065 ft 367 kts 291°
2026-05-04 20:49 28.77910 -88.32777 38065 ft 368 kts 291°
2026-05-04 20:49 28.79465 -88.38348 38065 ft 368 kts 291°
2026-05-04 20:50 28.81015 -88.43911 38064 ft 368 kts 291°
2026-05-04 20:50 28.82561 -88.49474 38040 ft 368 kts 291°
2026-05-04 20:51 28.84102 -88.55035 38064 ft 368 kts 291°
2026-05-04 20:51 28.85644 -88.60604 38063 ft 368 kts 291°
2026-05-04 20:52 28.87172 -88.66133 38062 ft 368 kts 291°
2026-05-04 20:52 28.88624 -88.71745 38065 ft 369 kts 288°
2026-05-04 20:53 28.89835 -88.77444 38063 ft 369 kts 288°
2026-05-04 20:53 28.91050 -88.83148 38058 ft 369 kts 288°
2026-05-04 20:54 28.92262 -88.88849 38054 ft 370 kts 288°
2026-05-04 20:54 28.93469 -88.94520 38067 ft 370 kts 288°
2026-05-04 20:55 28.94695 -89.00262 38063 ft 370 kts 288°
2026-05-04 20:55 28.95900 -89.05949 38100 ft 368 kts 288°
2026-05-04 20:56 28.97095 -89.11609 38065 ft 366 kts 288°
2026-05-04 20:56 28.98283 -89.17265 38065 ft 366 kts 288°
2026-05-04 20:57 28.99476 -89.22925 38064 ft 366 kts 288°
2026-05-04 20:57 29.00656 -89.28562 38064 ft 368 kts 288°
2026-05-04 20:58 29.01850 -89.34269 38066 ft 369 kts 288°
2026-05-04 20:58 29.03041 -89.39975 38060 ft 369 kts 288°
2026-05-04 20:59 29.04224 -89.45671 38072 ft 369 kts 288°
2026-05-04 20:59 29.05403 -89.51379 38063 ft 369 kts 288°
2026-05-04 21:00 29.06586 -89.57049 38073 ft 368 kts 288°
2026-05-04 21:00 29.07766 -89.62747 38069 ft 368 kts 288°
2026-05-04 21:01 29.08946 -89.68460 38072 ft 369 kts 288°
2026-05-04 21:01 29.10121 -89.74165 38065 ft 369 kts 288°
2026-05-04 21:02 29.11292 -89.79883 38061 ft 369 kts 288°
2026-05-04 21:02 29.12458 -89.85557 38064 ft 369 kts 287°
2026-05-04 21:03 29.13627 -89.91278 38075 ft 369 kts 287°
2026-05-04 21:03 29.14794 -89.97002 38073 ft 369 kts 287°
2026-05-04 21:04 29.15951 -90.02683 38059 ft 370 kts 287°
2026-05-04 21:04 29.17117 -90.08427 38070 ft 370 kts 287°
2026-05-04 21:05 29.18166 -90.14212 38071 ft 371 kts 285°
2026-05-04 21:05 29.19140 -90.19985 38075 ft 371 kts 285°
2026-05-04 21:06 29.20120 -90.25796 38076 ft 371 kts 285°
2026-05-04 21:06 29.21100 -90.31602 38076 ft 371 kts 285°
2026-05-04 21:07 29.22066 -90.37383 38075 ft 371 kts 285°
2026-05-04 21:07 29.23042 -90.43197 38071 ft 372 kts 285°
2026-05-04 21:08 29.24015 -90.49029 38069 ft 372 kts 285°
2026-05-04 21:08 29.24984 -90.54842 38104 ft 372 kts 285°
2026-05-04 21:09 29.25948 -90.60632 38076 ft 369 kts 285°
2026-05-04 21:09 29.26903 -90.66372 38074 ft 369 kts 285°
2026-05-04 21:10 29.27853 -90.72146 38072 ft 369 kts 285°
2026-05-04 21:10 29.28809 -90.77923 38067 ft 369 kts 285°
2026-05-04 21:11 29.29756 -90.83702 38070 ft 368 kts 285°
2026-05-04 21:11 29.30699 -90.89477 38070 ft 368 kts 285°
2026-05-04 21:12 29.31637 -90.95214 38076 ft 368 kts 285°
2026-05-04 21:12 29.32586 -91.00995 38067 ft 368 kts 285°
2026-05-04 21:13 29.33525 -91.06776 38074 ft 368 kts 285°
2026-05-04 21:13 29.34454 -91.12515 38070 ft 368 kts 285°
2026-05-04 21:14 29.35391 -91.18303 38057 ft 369 kts 284°
2026-05-04 21:14 29.36326 -91.24095 38071 ft 369 kts 285°
2026-05-04 21:15 29.37259 -91.29898 38073 ft 369 kts 284°
2026-05-04 21:15 29.38180 -91.35656 38074 ft 370 kts 284°
2026-05-04 21:16 29.39108 -91.41462 38070 ft 370 kts 284°
2026-05-04 21:16 29.40030 -91.47256 38070 ft 370 kts 284°
2026-05-04 21:17 29.40954 -91.53063 38064 ft 369 kts 284°
2026-05-04 21:17 29.41872 -91.58862 38072 ft 368 kts 284°
2026-05-04 21:18 29.42786 -91.64650 38075 ft 368 kts 284°
2026-05-04 21:18 29.43693 -91.70403 38067 ft 368 kts 284°
2026-05-04 21:19 29.44602 -91.76194 38066 ft 368 kts 284°
2026-05-04 21:19 29.45506 -91.81985 38066 ft 368 kts 284°
2026-05-04 21:20 29.46413 -91.87780 38056 ft 369 kts 284°
2026-05-04 21:20 29.47314 -91.93566 38047 ft 368 kts 284°
2026-05-04 21:21 29.48203 -91.99320 38053 ft 368 kts 284°
2026-05-04 21:21 29.49101 -92.05109 38055 ft 368 kts 284°
2026-05-04 21:22 29.49994 -92.10893 38056 ft 368 kts 284°
2026-05-04 21:22 29.50884 -92.16685 38056 ft 368 kts 284°
2026-05-04 21:23 29.51771 -92.22474 38056 ft 368 kts 284°
2026-05-04 21:23 29.52647 -92.28217 38069 ft 366 kts 284°
2026-05-04 21:24 29.53527 -92.33975 38047 ft 365 kts 284°
2026-05-04 21:24 29.54404 -92.39733 38050 ft 366 kts 284°
2026-05-04 21:25 29.55268 -92.45462 38048 ft 366 kts 284°
2026-05-04 21:25 29.56140 -92.51224 38047 ft 366 kts 284°
2026-05-04 21:26 29.56862 -92.56017 38045 ft 366 kts 284°
2026-05-04 21:26 29.57870 -92.62723 38050 ft 366 kts 284°
2026-05-04 21:27 29.58588 -92.67518 38020 ft 366 kts 284°
2026-05-04 21:27 29.59448 -92.73295 38043 ft 367 kts 284°
2026-05-04 21:28 29.60310 -92.79083 38047 ft 367 kts 284°
2026-05-04 21:28 29.61169 -92.84874 38047 ft 367 kts 284°
2026-05-04 21:29 29.62021 -92.90637 38046 ft 367 kts 284°
2026-05-04 21:29 29.62873 -92.96428 38047 ft 367 kts 284°
2026-05-04 21:30 29.63727 -93.02221 38047 ft 367 kts 284°
2026-05-04 21:30 29.64576 -93.08021 38039 ft 367 kts 283°
2026-05-04 21:31 29.65836 -93.16674 38042 ft 367 kts 283°
2026-05-04 21:32 29.66682 -93.22466 38048 ft 367 kts 283°
2026-05-04 21:32 29.67523 -93.28266 38043 ft 367 kts 283°
2026-05-04 21:33 29.68359 -93.34058 38041 ft 367 kts 283°
2026-05-04 21:33 29.69195 -93.39860 38036 ft 367 kts 283°
2026-05-04 21:34 29.70020 -93.45614 38042 ft 367 kts 283°
2026-05-04 21:34 29.70850 -93.51417 38029 ft 367 kts 283°
2026-05-04 21:35 29.71678 -93.57217 38029 ft 367 kts 283°
2026-05-04 21:35 29.72503 -93.63019 38029 ft 367 kts 283°
2026-05-04 21:36 29.73323 -93.68819 38030 ft 367 kts 283°
2026-05-04 21:36 29.74138 -93.74590 38031 ft 367 kts 283°
2026-05-04 21:37 29.74956 -93.80392 38023 ft 367 kts 283°
2026-05-04 21:37 29.75771 -93.86206 38010 ft 367 kts 283°
2026-05-04 21:38 29.76575 -93.91966 38016 ft 367 kts 283°
2026-05-04 21:38 29.77384 -93.97765 38024 ft 366 kts 283°
2026-05-04 21:39 29.78185 -94.03547 38012 ft 365 kts 283°
2026-05-04 21:39 29.78987 -94.09326 38011 ft 365 kts 283°
2026-05-04 21:40 29.79780 -94.15071 38008 ft 365 kts 283°
2026-05-04 21:40 29.80575 -94.20846 37997 ft 365 kts 282°
2026-05-04 21:41 29.81366 -94.26616 38006 ft 364 kts 282°
2026-05-04 21:41 29.82157 -94.32394 37999 ft 365 kts 282°
2026-05-04 21:42 29.82944 -94.38168 38001 ft 365 kts 282°
2026-05-04 21:42 29.83723 -94.43914 38000 ft 365 kts 282°
2026-05-04 21:43 29.84504 -94.49687 38004 ft 365 kts 282°
2026-05-04 21:43 29.85280 -94.55464 38003 ft 365 kts 282°
2026-05-04 21:44 29.86048 -94.61246 37995 ft 364 kts 282°
2026-05-04 21:44 29.86822 -94.66984 37990 ft 364 kts 282°
2026-05-04 21:45 29.87599 -94.72766 37990 ft 364 kts 282°
2026-05-04 21:45 29.88370 -94.78540 37989 ft 364 kts 282°
2026-05-04 21:46 29.89137 -94.84323 37987 ft 364 kts 282°
2026-05-04 21:46 29.89888 -94.90104 37985 ft 364 kts 282°
2026-05-04 21:47 29.90636 -94.95841 37966 ft 365 kts 282°
2026-05-04 21:47 29.91394 -95.01635 37981 ft 365 kts 282°
2026-05-04 21:48 29.92153 -95.07442 37975 ft 366 kts 281°
2026-05-04 21:48 29.92901 -95.13239 37973 ft 366 kts 281°
2026-05-04 21:49 29.93650 -95.19051 37972 ft 366 kts 281°
2026-05-04 21:49 29.94394 -95.24821 37973 ft 366 kts 281°
2026-05-04 21:50 29.95155 -95.30623 37972 ft 366 kts 282°
2026-05-04 21:50 29.95977 -95.36427 37954 ft 366 kts 283°
2026-05-04 21:51 29.96907 -95.42221 37966 ft 367 kts 283°
2026-05-04 21:51 29.97831 -95.47988 37959 ft 367 kts 283°
2026-05-04 21:52 29.98758 -95.53789 37967 ft 367 kts 282°
2026-05-04 21:52 29.99686 -95.59594 37996 ft 367 kts 283°
2026-05-04 21:53 30.00601 -95.65371 37926 ft 365 kts 283°
2026-05-04 21:53 30.01512 -95.71099 37902 ft 365 kts 283°
2026-05-04 21:54 30.02429 -95.76879 37920 ft 367 kts 282°
2026-05-04 21:54 30.03344 -95.82674 37896 ft 367 kts 282°
2026-05-04 21:55 30.04260 -95.88480 37887 ft 367 kts 282°
2026-05-04 21:55 30.05172 -95.94279 37854 ft 367 kts 282°
2026-05-04 21:56 30.06069 -96.00052 37836 ft 367 kts 282°
2026-05-04 21:56 30.06974 -96.05856 37810 ft 367 kts 282°
2026-05-04 21:57 30.07881 -96.11660 37755 ft 368 kts 282°
2026-05-04 21:57 30.08785 -96.17487 37733 ft 368 kts 282°
2026-05-04 21:58 30.09680 -96.23316 37736 ft 369 kts 282°
2026-05-04 21:58 30.10581 -96.29153 37730 ft 369 kts 282°
2026-05-04 21:59 30.11474 -96.34995 37729 ft 369 kts 282°
2026-05-04 21:59 30.12364 -96.40831 37743 ft 369 kts 282°
2026-05-04 22:00 30.13249 -96.46631 37712 ft 369 kts 282°
2026-05-04 22:00 30.14138 -96.52478 37743 ft 370 kts 282°
2026-05-04 22:01 30.15029 -96.58345 37758 ft 370 kts 282°
2026-05-04 22:01 30.15913 -96.64210 37800 ft 370 kts 282°
2026-05-04 22:02 30.16789 -96.70035 37849 ft 370 kts 282°
2026-05-04 22:02 30.17676 -96.75907 37887 ft 370 kts 282°
2026-05-04 22:03 30.18552 -96.81766 37915 ft 370 kts 282°
2026-05-04 22:03 30.19418 -96.87613 37938 ft 371 kts 282°
2026-05-04 22:04 30.20300 -96.93503 37948 ft 372 kts 282°
2026-05-04 22:04 30.21175 -96.99402 37950 ft 372 kts 282°
2026-05-04 22:05 30.22046 -97.05302 37961 ft 370 kts 282°
2026-05-04 22:05 30.22913 -97.11170 37938 ft 370 kts 282°
2026-05-04 22:06 30.23777 -97.17038 37867 ft 370 kts 282°
2026-05-04 22:06 30.24634 -97.22905 37863 ft 370 kts 281°
2026-05-04 22:07 30.25489 -97.28743 37863 ft 370 kts 282°
2026-05-04 22:07 30.26341 -97.34623 37879 ft 370 kts 281°
2026-05-04 22:08 30.27192 -97.40495 37879 ft 370 kts 281°
2026-05-04 22:08 30.28031 -97.46343 37880 ft 370 kts 281°
2026-05-04 22:09 30.28876 -97.52218 37880 ft 370 kts 281°
2026-05-04 22:09 30.29725 -97.58105 37893 ft 370 kts 281°
2026-05-04 22:10 30.30563 -97.63997 37893 ft 371 kts 281°
2026-05-04 22:10 30.31406 -97.69855 37899 ft 371 kts 281°
2026-05-04 22:11 30.32250 -97.75765 37897 ft 371 kts 281°
2026-05-04 22:11 30.33082 -97.81669 37929 ft 371 kts 281°
2026-05-04 22:12 30.33770 -97.86578 37918 ft 371 kts 281°
2026-05-04 22:12 30.34734 -97.93437 37931 ft 371 kts 281°
2026-05-04 22:13 30.35429 -97.98339 37919 ft 371 kts 281°
2026-05-04 22:13 30.36262 -98.04252 37935 ft 372 kts 281°
2026-05-04 22:14 30.37087 -98.10180 37944 ft 372 kts 281°
2026-05-04 22:14 30.37910 -98.16106 37933 ft 372 kts 281°
2026-05-04 22:15 30.38727 -98.21993 37905 ft 372 kts 281°
2026-05-04 22:15 30.39545 -98.27921 37901 ft 372 kts 281°
2026-05-04 22:16 30.40361 -98.33853 37902 ft 372 kts 281°
2026-05-04 22:16 30.41174 -98.39791 37901 ft 373 kts 280°
2026-05-04 22:17 30.41976 -98.45710 37883 ft 374 kts 280°
2026-05-04 22:17 30.42791 -98.51670 37873 ft 374 kts 280°
2026-05-04 22:18 30.43599 -98.57633 37870 ft 374 kts 280°
2026-05-04 22:18 30.44402 -98.63599 37871 ft 374 kts 280°
2026-05-04 22:19 30.45198 -98.69524 37860 ft 374 kts 280°
2026-05-04 22:19 30.46002 -98.75504 37854 ft 375 kts 280°
2026-05-04 22:20 30.46804 -98.81477 37848 ft 375 kts 280°
2026-05-04 22:20 30.47598 -98.87408 37846 ft 375 kts 280°
2026-05-04 22:21 30.48392 -98.93392 37847 ft 375 kts 280°
2026-05-04 22:21 30.49184 -98.99370 37838 ft 375 kts 280°
2026-05-04 22:22 30.49968 -99.05351 37838 ft 375 kts 279°
2026-05-04 22:22 30.50748 -99.11296 37824 ft 375 kts 280°
2026-05-04 22:23 30.51537 -99.17286 37831 ft 376 kts 279°
2026-05-04 22:23 30.52323 -99.23293 37831 ft 376 kts 279°
2026-05-04 22:24 30.53099 -99.29292 37827 ft 376 kts 279°
2026-05-04 22:24 30.53870 -99.35258 37826 ft 376 kts 279°
2026-05-04 22:25 30.54638 -99.41270 37831 ft 376 kts 279°
2026-05-04 22:25 30.55401 -99.47273 37841 ft 376 kts 279°
2026-05-04 22:26 30.56162 -99.53272 37860 ft 376 kts 279°
2026-05-04 22:26 30.56919 -99.59277 37870 ft 376 kts 279°
2026-05-04 22:27 30.57682 -99.65241 37883 ft 375 kts 279°
2026-05-04 22:27 30.58440 -99.71238 37890 ft 375 kts 279°
2026-05-04 22:28 30.59201 -99.77243 37901 ft 376 kts 279°
2026-05-04 22:28 30.60079 -99.83209 37887 ft 374 kts 284°
2026-05-04 22:29 30.61326 -99.89022 37872 ft 372 kts 284°
2026-05-04 22:29 30.62589 -99.94854 37856 ft 372 kts 284°
2026-05-04 22:30 30.63844 -100.00697 37842 ft 372 kts 284°
2026-05-04 22:30 30.65095 -100.06538 37828 ft 372 kts 284°
2026-05-04 22:31 30.66335 -100.12329 37815 ft 372 kts 284°
2026-05-04 22:31 30.67580 -100.18171 37811 ft 372 kts 284°
2026-05-04 22:32 30.68828 -100.24017 37809 ft 372 kts 284°
2026-05-04 22:32 30.70066 -100.29857 37817 ft 372 kts 283°
2026-05-04 22:33 30.71286 -100.35667 37848 ft 372 kts 283°
2026-05-04 22:33 30.72521 -100.41511 37865 ft 372 kts 283°
2026-05-04 22:34 30.73755 -100.47360 37886 ft 372 kts 283°
2026-05-04 22:34 30.74975 -100.53174 37896 ft 372 kts 283°
2026-05-04 22:35 30.76194 -100.59020 37897 ft 372 kts 283°
2026-05-04 22:35 30.77410 -100.64875 37899 ft 372 kts 283°
2026-05-04 22:36 30.78626 -100.70732 37891 ft 372 kts 283°
2026-05-04 22:36 30.79837 -100.76591 37914 ft 371 kts 283°
2026-05-04 22:37 30.81031 -100.82353 37871 ft 367 kts 283°
2026-05-04 22:37 30.82226 -100.88124 37856 ft 367 kts 283°
2026-05-04 22:38 30.83431 -100.93911 37866 ft 367 kts 283°
2026-05-04 22:38 30.84622 -100.99695 37880 ft 367 kts 283°
2026-05-04 22:39 30.85805 -101.05442 37892 ft 367 kts 283°
2026-05-04 22:39 30.86998 -101.11224 37898 ft 367 kts 283°
2026-05-04 22:40 30.88184 -101.17011 37901 ft 367 kts 283°
2026-05-04 22:40 30.89361 -101.22801 37899 ft 367 kts 283°
2026-05-04 22:41 30.90544 -101.28587 37834 ft 367 kts 283°
2026-05-04 22:41 30.91710 -101.34334 37810 ft 366 kts 283°
2026-05-04 22:42 30.92875 -101.40104 37815 ft 366 kts 283°
2026-05-04 22:42 30.94030 -101.45872 37808 ft 366 kts 283°
2026-05-04 22:43 30.95182 -101.51649 37811 ft 366 kts 283°
2026-05-04 22:43 30.96342 -101.57421 37810 ft 366 kts 283°
2026-05-04 22:44 30.97500 -101.63202 37805 ft 366 kts 283°
2026-05-04 22:44 30.98651 -101.68942 37788 ft 366 kts 283°
2026-05-04 22:45 30.99847 -101.74731 37796 ft 367 kts 282°
2026-05-04 22:45 31.01599 -101.83449 37786 ft 368 kts 282°
2026-05-04 22:46 31.02756 -101.89259 37785 ft 368 kts 282°
2026-05-04 22:46 31.03903 -101.95038 37783 ft 368 kts 282°
2026-05-04 22:47 31.05051 -102.00848 37781 ft 368 kts 282°
2026-05-04 22:47 31.06193 -102.06676 37786 ft 367 kts 282°
2026-05-04 22:48 31.07333 -102.12458 37770 ft 365 kts 282°
2026-05-04 22:48 31.08453 -102.18251 37766 ft 365 kts 282°
2026-05-04 22:49 31.09584 -102.24000 37759 ft 365 kts 282°
2026-05-04 22:49 31.10715 -102.29783 37763 ft 365 kts 282°
2026-05-04 22:50 31.11843 -102.35573 37753 ft 365 kts 282°
2026-05-04 22:50 31.12939 -102.41364 37766 ft 365 kts 281°
2026-05-04 22:51 31.14026 -102.47102 37753 ft 363 kts 282°
2026-05-04 22:51 31.15132 -102.52859 37743 ft 363 kts 282°
2026-05-04 22:52 31.16277 -102.58612 37746 ft 363 kts 282°
2026-05-04 22:52 31.17400 -102.64365 37762 ft 363 kts 282°
2026-05-04 22:53 31.18486 -102.70111 37743 ft 361 kts 282°
2026-05-04 22:53 31.19554 -102.75815 37735 ft 361 kts 282°
2026-05-04 22:54 31.20649 -102.81545 37737 ft 361 kts 282°
2026-05-04 22:54 31.21750 -102.87276 37734 ft 361 kts 282°
2026-05-04 22:55 31.22842 -102.93003 37736 ft 361 kts 281°
2026-05-04 22:55 31.23919 -102.98699 37735 ft 361 kts 282°
2026-05-04 22:56 31.25009 -103.04427 37732 ft 361 kts 282°
2026-05-04 22:56 31.26098 -103.10152 37735 ft 361 kts 281°
2026-05-04 22:57 31.27174 -103.15882 37755 ft 360 kts 281°
2026-05-04 22:57 31.28242 -103.21603 37772 ft 360 kts 281°
2026-05-04 22:58 31.29280 -103.27294 37795 ft 360 kts 280°
2026-05-04 22:58 31.30319 -103.33012 37820 ft 360 kts 281°
2026-05-04 22:59 31.31373 -103.38739 37843 ft 360 kts 281°
2026-05-04 22:59 31.32432 -103.44423 37858 ft 360 kts 281°
2026-05-04 23:00 31.33524 -103.50139 37831 ft 360 kts 281°
2026-05-04 23:00 31.34596 -103.55881 37858 ft 362 kts 280°
2026-05-04 23:01 31.35481 -103.60659 37862 ft 361 kts 280°
2026-05-04 23:01 31.36531 -103.66389 37837 ft 360 kts 280°
2026-05-04 23:02 31.37576 -103.72125 37817 ft 360 kts 280°
2026-05-04 23:02 31.38622 -103.77864 37797 ft 360 kts 280°
2026-05-04 23:03 31.39667 -103.83599 37783 ft 360 kts 280°
2026-05-04 23:03 31.40700 -103.89306 37762 ft 362 kts 280°
2026-05-04 23:04 31.41747 -103.95076 37768 ft 362 kts 279°
2026-05-04 23:04 31.42788 -104.00851 37765 ft 362 kts 279°
2026-05-04 23:05 31.43817 -104.06634 37765 ft 362 kts 279°
2026-05-04 23:05 31.44861 -104.12420 37779 ft 363 kts 279°
2026-05-04 23:06 31.45893 -104.18210 37778 ft 363 kts 279°
2026-05-04 23:06 31.46920 -104.23966 37776 ft 364 kts 279°
2026-05-04 23:07 31.47965 -104.29794 37778 ft 366 kts 279°
2026-05-04 23:07 31.49008 -104.35623 37771 ft 366 kts 279°
2026-05-04 23:08 31.50037 -104.41457 37775 ft 365 kts 279°
2026-05-04 23:08 31.51056 -104.47294 37773 ft 365 kts 279°
2026-05-04 23:09 31.52087 -104.53118 37793 ft 364 kts 279°
2026-05-04 23:09 31.53087 -104.58918 37786 ft 363 kts 279°
2026-05-04 23:10 31.54067 -104.64681 37781 ft 363 kts 279°
2026-05-04 23:10 31.55077 -104.70480 37779 ft 363 kts 279°
2026-05-04 23:11 31.56115 -104.76281 37777 ft 363 kts 279°
2026-05-04 23:11 31.57140 -104.82083 37777 ft 363 kts 279°
2026-05-04 23:12 31.58154 -104.87895 37775 ft 363 kts 279°
2026-05-04 23:12 31.59161 -104.93701 37775 ft 363 kts 279°
2026-05-04 23:13 31.60149 -104.99482 37775 ft 363 kts 278°
2026-05-04 23:13 31.61140 -105.05302 37767 ft 363 kts 279°
2026-05-04 23:14 31.62143 -105.11118 37766 ft 364 kts 279°
2026-05-04 23:14 31.63137 -105.16940 37764 ft 363 kts 278°
2026-05-04 23:15 31.64122 -105.22756 37758 ft 363 kts 278°
2026-05-04 23:15 31.65107 -105.28546 37758 ft 363 kts 278°
2026-05-04 23:16 31.66092 -105.34368 37758 ft 364 kts 278°
2026-05-04 23:16 31.67081 -105.40207 37755 ft 364 kts 278°
2026-05-04 23:17 31.68064 -105.46046 37757 ft 364 kts 278°
2026-05-04 23:17 31.69037 -105.51837 37750 ft 364 kts 278°
2026-05-04 23:18 31.70000 -105.57667 37752 ft 364 kts 278°
2026-05-04 23:18 31.70977 -105.63508 37753 ft 364 kts 278°
2026-05-04 23:19 31.71945 -105.69353 37746 ft 365 kts 278°
2026-05-04 23:19 31.72913 -105.75224 37750 ft 366 kts 278°
2026-05-04 23:20 31.73892 -105.81050 37745 ft 366 kts 278°
2026-05-04 23:20 31.74858 -105.86906 37745 ft 366 kts 278°
2026-05-04 23:21 31.75801 -105.92792 37737 ft 366 kts 278°
2026-05-04 23:21 31.76775 -105.98673 37761 ft 366 kts 278°
2026-05-04 23:22 31.77733 -106.04521 37797 ft 367 kts 277°
2026-05-04 23:22 31.78706 -106.10422 37831 ft 367 kts 277°
2026-05-04 23:23 31.79659 -106.16317 37882 ft 367 kts 277°
2026-05-04 23:23 31.80606 -106.22185 37920 ft 367 kts 277°
2026-05-04 23:24 31.81565 -106.28087 37950 ft 367 kts 277°
2026-05-04 23:24 31.82528 -106.33981 37982 ft 367 kts 277°
2026-05-04 23:25 31.83497 -106.39868 37957 ft 366 kts 277°
2026-05-04 23:25 31.84448 -106.45723 37950 ft 366 kts 277°
2026-05-04 23:26 31.85405 -106.51624 37931 ft 366 kts 277°
2026-05-04 23:26 31.86359 -106.57514 37952 ft 366 kts 277°
2026-05-04 23:27 31.87313 -106.63400 37968 ft 366 kts 277°
2026-05-04 23:27 31.88254 -106.69259 37969 ft 366 kts 277°
2026-05-04 23:28 31.89207 -106.75164 37971 ft 368 kts 277°
2026-05-04 23:28 31.90160 -106.81083 37969 ft 368 kts 277°
2026-05-04 23:29 31.91112 -106.87017 37930 ft 368 kts 277°
2026-05-04 23:29 31.91587 -106.89982 37771 ft 368 kts 277°
2026-05-04 23:29 31.92050 -106.92907 37756 ft 368 kts 277°
2026-05-04 23:30 31.92977 -106.98839 37750 ft 368 kts 277°
2026-05-04 23:30 31.93917 -107.04777 37749 ft 369 kts 277°
2026-05-04 23:31 31.94873 -107.10724 37750 ft 370 kts 276°
2026-05-04 23:31 31.95814 -107.16684 37748 ft 370 kts 276°
2026-05-04 23:32 31.96743 -107.22617 37783 ft 370 kts 276°
2026-05-04 23:32 31.97665 -107.28572 37765 ft 368 kts 276°
2026-05-04 23:33 31.98589 -107.34521 37765 ft 369 kts 276°
2026-05-04 23:33 31.99518 -107.40469 37762 ft 369 kts 276°
2026-05-04 23:34 32.00445 -107.46427 37783 ft 370 kts 276°
2026-05-04 23:34 32.01366 -107.52366 37823 ft 371 kts 275°
2026-05-04 23:35 32.02282 -107.58343 37847 ft 371 kts 275°
2026-05-04 23:35 32.03198 -107.64331 37874 ft 371 kts 275°
2026-05-04 23:36 32.04117 -107.70316 37887 ft 371 kts 275°
2026-05-04 23:36 32.05026 -107.76296 37897 ft 371 kts 275°
2026-05-04 23:37 32.05934 -107.82247 37796 ft 371 kts 275°
2026-05-04 23:37 32.06843 -107.88231 37790 ft 371 kts 275°
2026-05-04 23:38 32.07742 -107.94232 37793 ft 371 kts 275°
2026-05-04 23:38 32.08635 -108.00232 37791 ft 371 kts 275°
2026-05-04 23:39 32.09532 -108.06221 37793 ft 371 kts 275°
2026-05-04 23:39 32.10436 -108.12217 37793 ft 371 kts 275°
2026-05-04 23:40 32.11332 -108.18224 37799 ft 371 kts 275°
2026-05-04 23:40 32.12221 -108.24188 37799 ft 371 kts 275°
2026-05-04 23:41 32.13112 -108.30224 37796 ft 371 kts 275°
2026-05-04 23:41 32.13990 -108.36193 37812 ft 371 kts 275°
2026-05-04 23:42 32.14875 -108.42208 37849 ft 371 kts 274°
2026-05-04 23:42 32.15749 -108.48218 37885 ft 371 kts 274°
2026-05-04 23:43 32.16624 -108.54181 37913 ft 370 kts 274°
2026-05-04 23:43 32.17495 -108.60180 37940 ft 370 kts 274°
2026-05-04 23:44 32.18363 -108.66182 37961 ft 370 kts 274°
2026-05-04 23:44 32.19220 -108.72190 37967 ft 370 kts 274°
2026-05-04 23:45 32.19638 -108.75143 37803 ft 370 kts 274°
2026-05-04 23:45 32.20074 -108.78137 37811 ft 370 kts 274°
2026-05-04 23:45 32.20921 -108.84149 37792 ft 371 kts 274°
2026-05-04 23:46 32.21798 -108.90160 37791 ft 371 kts 274°
2026-05-04 23:46 32.22655 -108.96169 37803 ft 371 kts 274°
2026-05-04 23:47 32.23507 -109.02119 37791 ft 368 kts 273°
2026-05-04 23:47 32.24354 -109.08084 37788 ft 368 kts 273°
2026-05-04 23:48 32.25054 -109.13041 37795 ft 368 kts 273°
2026-05-04 23:48 32.25891 -109.19008 37789 ft 367 kts 273°
2026-05-04 23:49 32.26726 -109.24961 37788 ft 367 kts 273°
2026-05-04 23:49 32.28004 -109.30872 37785 ft 373 kts 278°
2026-05-04 23:50 32.29458 -109.36764 37788 ft 373 kts 278°
2026-05-04 23:50 32.30878 -109.42607 37799 ft 372 kts 278°
2026-05-04 23:51 32.32315 -109.48495 37807 ft 372 kts 278°
2026-05-04 23:51 32.33744 -109.54370 37804 ft 371 kts 278°
2026-05-04 23:52 32.35157 -109.60239 37799 ft 371 kts 278°
2026-05-04 23:52 32.36570 -109.66080 37800 ft 371 kts 278°
2026-05-04 23:53 32.37989 -109.71944 37850 ft 369 kts 277°
2026-05-04 23:53 32.39398 -109.77783 37824 ft 368 kts 277°
2026-05-04 23:54 32.40792 -109.83570 37845 ft 368 kts 277°
2026-05-04 23:54 32.42190 -109.89394 37843 ft 367 kts 277°
2026-05-04 23:55 32.43581 -109.95208 37861 ft 367 kts 277°
2026-05-04 23:56 32.45670 -110.03955 37864 ft 367 kts 277°
2026-05-04 23:56 32.47047 -110.09739 37874 ft 367 kts 277°
2026-05-04 23:57 32.48423 -110.15557 37894 ft 366 kts 276°
2026-05-04 23:57 32.49805 -110.21377 37888 ft 367 kts 276°
2026-05-04 23:58 32.51180 -110.27211 37881 ft 365 kts 276°
2026-05-04 23:58 32.52543 -110.32962 37934 ft 366 kts 276°
2026-05-04 23:59 32.53899 -110.38776 37912 ft 365 kts 276°
2026-05-04 23:59 32.55247 -110.44568 37895 ft 363 kts 276°
2026-05-05 00:00 32.56601 -110.50352 37900 ft 364 kts 276°
2026-05-05 00:00 32.57957 -110.56124 37900 ft 366 kts 276°
2026-05-05 00:01 32.59322 -110.61937 37905 ft 366 kts 276°
2026-05-05 00:01 32.60672 -110.67765 37904 ft 366 kts 276°
2026-05-05 00:02 32.62027 -110.73568 37903 ft 365 kts 276°
2026-05-05 00:02 32.63363 -110.79347 37909 ft 365 kts 276°
2026-05-05 00:03 32.64703 -110.85170 37906 ft 366 kts 276°
2026-05-05 00:03 32.66049 -110.91003 37908 ft 366 kts 276°
2026-05-05 00:04 32.67597 -110.96815 37935 ft 376 kts 283°
2026-05-05 00:04 32.68881 -110.99581 37927 ft 390 kts 291°
2026-05-05 00:04 32.70608 -111.02143 37915 ft 402 kts 298°
2026-05-05 00:04 32.72503 -111.04571 37417 ft 400 kts 299°
2026-05-05 00:05 32.74411 -111.06980 36607 ft 400 kts 299°
2026-05-05 00:05 32.76307 -111.09400 35760 ft 400 kts 299°
2026-05-05 00:05 32.78172 -111.11807 34867 ft 402 kts 299°
2026-05-05 00:05 32.80073 -111.14262 33911 ft 405 kts 299°
2026-05-05 00:06 32.81982 -111.16729 32862 ft 408 kts 299°
2026-05-05 00:06 32.83918 -111.19237 31869 ft 412 kts 300°
2026-05-05 00:06 32.85863 -111.21761 30909 ft 416 kts 300°
2026-05-05 00:06 32.87829 -111.24312 29893 ft 418 kts 300°
2026-05-05 00:07 32.89801 -111.26876 28627 ft 421 kts 301°
2026-05-05 00:07 32.91787 -111.29465 27416 ft 425 kts 302°
2026-05-05 00:07 32.93790 -111.32068 26229 ft 429 kts 303°
2026-05-05 00:07 32.95819 -111.34705 25116 ft 434 kts 303°
2026-05-05 00:08 32.97831 -111.37422 24296 ft 439 kts 301°
2026-05-05 00:08 32.99509 -111.40398 23487 ft 426 kts 291°
2026-05-05 00:08 33.00636 -111.43450 22608 ft 408 kts 282°
2026-05-05 00:08 33.01443 -111.46813 21989 ft 409 kts 279°
2026-05-05 00:09 33.02165 -111.50074 21516 ft 405 kts 279°
2026-05-05 00:09 33.02871 -111.53270 20945 ft 401 kts 279°
2026-05-05 00:09 33.03592 -111.56476 20284 ft 405 kts 279°
2026-05-05 00:09 33.04321 -111.59783 19606 ft 414 kts 280°
2026-05-05 00:10 33.05039 -111.63097 18931 ft 412 kts 280°
2026-05-05 00:10 33.05733 -111.66414 18278 ft 410 kts 280°
2026-05-05 00:10 33.06386 -111.69705 17506 ft 403 kts 280°
2026-05-05 00:10 33.07010 -111.72921 16490 ft 393 kts 280°
2026-05-05 00:11 33.07618 -111.76077 15398 ft 388 kts 279°
2026-05-05 00:11 33.08221 -111.79202 14322 ft 385 kts 279°
2026-05-05 00:11 33.08815 -111.82309 13196 ft 383 kts 280°
2026-05-05 00:11 33.09398 -111.85400 12079 ft 380 kts 279°
2026-05-05 00:12 33.09971 -111.88435 11372 ft 368 kts 279°
2026-05-05 00:12 33.10528 -111.91333 11041 ft 348 kts 279°
2026-05-05 00:12 33.11064 -111.94068 10794 ft 328 kts 280°
2026-05-05 00:12 33.11570 -111.96615 10570 ft 310 kts 280°
2026-05-05 00:13 33.12063 -111.99059 10316 ft 295 kts 280°
2026-05-05 00:13 33.12537 -112.01364 10106 ft 280 kts 280°
2026-05-05 00:13 33.12996 -112.03574 9808 ft 270 kts 280°
2026-05-05 00:13 33.13452 -112.05747 9341 ft 268 kts 280°
2026-05-05 00:14 33.13908 -112.07922 9036 ft 271 kts 280°
2026-05-05 00:14 33.14370 -112.10119 8960 ft 272 kts 280°
2026-05-05 00:14 33.14830 -112.12289 8727 ft 267 kts 280°
2026-05-05 00:14 33.15279 -112.14415 8205 ft 268 kts 280°
2026-05-05 00:15 33.15736 -112.16578 7603 ft 270 kts 280°
2026-05-05 00:15 33.16197 -112.18787 7170 ft 276 kts 279°
2026-05-05 00:15 33.16657 -112.20977 7044 ft 267 kts 280°
2026-05-05 00:15 33.17110 -112.23108 6984 ft 263 kts 280°
2026-05-05 00:16 33.17568 -112.25224 6965 ft 263 kts 280°
2026-05-05 00:16 33.18030 -112.27344 6968 ft 264 kts 280°
2026-05-05 00:16 33.18490 -112.29448 6978 ft 259 kts 280°
2026-05-05 00:16 33.19019 -112.31485 6985 ft 260 kts 287°
2026-05-05 00:17 33.19911 -112.33400 6994 ft 265 kts 298°
2026-05-05 00:17 33.20936 -112.35195 6991 ft 265 kts 300°
2026-05-05 00:17 33.21986 -112.36998 6879 ft 261 kts 300°
2026-05-05 00:17 33.23044 -112.38763 6458 ft 263 kts 305°
2026-05-05 00:18 33.24507 -112.40126 5983 ft 272 kts 330°
2026-05-05 00:18 33.26351 -112.40668 5540 ft 278 kts 355°
2026-05-05 00:18 33.28252 -112.40260 5118 ft 280 kts 19°
2026-05-05 00:18 33.30001 -112.39320 4736 ft 278 kts 24°
2026-05-05 00:19 33.31750 -112.38286 4330 ft 275 kts 25°
2026-05-05 00:19 33.33456 -112.37265 4038 ft 270 kts 26°
2026-05-05 00:19 33.34969 -112.36039 3969 ft 255 kts 37°
2026-05-05 00:19 33.36281 -112.34753 3955 ft 238 kts 39°
2026-05-05 00:20 33.37510 -112.33528 3955 ft 221 kts 39°
2026-05-05 00:20 33.38637 -112.32394 3965 ft 206 kts 39°
2026-05-05 00:20 33.39750 -112.31272 3977 ft 208 kts 39°
2026-05-05 00:20 33.40855 -112.30163 3991 ft 206 kts 39°
2026-05-05 00:21 33.41905 -112.29120 4039 ft 187 kts 39°
2026-05-05 00:21 33.42876 -112.28145 3781 ft 180 kts 39°
2026-05-05 00:21 33.43849 -112.27187 3351 ft 182 kts 39°
2026-05-05 00:21 33.44828 -112.26243 3012 ft 181 kts 39°
2026-05-05 00:22 33.45771 -112.25333 2926 ft 163 kts 39°
2026-05-05 00:22 33.46747 -112.24673 2918 ft 160 kts
2026-05-05 00:22 33.47792 -112.24902 2942 ft 152 kts 321°
2026-05-05 00:22 33.48520 -112.25702 2957 ft 141 kts 308°
2026-05-05 00:23 33.49228 -112.26590 2974 ft 149 kts 308°
2026-05-05 00:23 33.49916 -112.27493 2957 ft 146 kts 303°
2026-05-05 00:23 33.50167 -112.28595 2824 ft 139 kts 251°
2026-05-05 00:23 33.49604 -112.29508 2746 ft 135 kts 228°
2026-05-05 00:24 33.49023 -112.30358 2861 ft 135 kts 232°
2026-05-05 00:24 33.48465 -112.31267 2814 ft 135 kts 233°
2026-05-05 00:24 33.47902 -112.32143 2694 ft 132 kts 228°
2026-05-05 00:24 33.47259 -112.32888 2424 ft 133 kts 221°
2026-05-05 00:25 33.46526 -112.33618 2217 ft 134 kts 219°
2026-05-05 00:25 33.45803 -112.34336 1996 ft 135 kts 217°
2026-05-05 00:25 33.45054 -112.35000 1718 ft 135 kts 217°
2026-05-05 00:25 33.44304 -112.35686 1485 ft 134 kts 218°
2026-05-05 00:26 33.43585 -112.36368 1235 ft 134 kts 218°
2026-05-05 00:26 33.42853 -112.37045 1019 ft 133 kts 219°
2026-05-05 00:26 33.42183 -112.37671 967 ft 106 kts 219°
2026-05-05 00:26 33.41811 -112.38019 961 ft 26 kts 218°
2026-05-05 00:27 33.41724 -112.38097 962 ft 16 kts 216°
2026-05-05 00:27 33.41628 -112.38186 962 ft 18 kts 219°
2026-05-05 00:27 33.41550 -112.38253 958 ft 9 kts 238°
2026-05-05 00:27 33.41490 -112.38302 957 ft 12 kts 182°
2026-05-05 00:28 33.41429 -112.38234 955 ft 15 kts 90°
2026-05-05 00:28 33.41505 -112.38139 956 ft 18 kts 38°
2026-05-05 00:28 33.41616 -112.38035 960 ft 22 kts 38°
2026-05-05 00:28 33.41743 -112.37917 958 ft 22 kts 38°
2026-05-05 00:29 33.41853 -112.37815 959 ft 18 kts 38°
2026-05-05 00:29 33.41959 -112.37716 958 ft 21 kts 38°
2026-05-05 00:29 33.42083 -112.37600 966 ft 23 kts 38°
2026-05-05 00:29 33.42166 -112.37523 965 ft 8 kts 38°
2026-05-05 00:30 33.42205 -112.37487 965 ft 9 kts 38°
2026-05-05 00:30 33.42270 -112.37426 981 ft 15 kts 38°
2026-05-05 00:30 33.42368 -112.37334 977 ft 20 kts 38°
2026-05-05 00:30 33.42483 -112.37227 976 ft 18 kts 38°
2026-05-05 00:31 33.42559 -112.37155 984 ft 15 kts 38°
2026-05-05 00:31 33.42648 -112.37071 978 ft 18 kts 38°
2026-05-05 00:31 33.42740 -112.36985 978 ft 3 kts 38°
2026-05-05 00:31 33.42744 -112.36967 988 ft 4 kts 82°
2026-05-05 00:32 33.42731 -112.36916 977 ft 8 kts 125°
2026-05-05 00:32 33.42706 -112.36876 981 ft 10 kts 127°
2026-05-05 00:32 33.42661 -112.36802 977 ft 12 kts 116°
2026-05-05 00:32 33.42684 -112.36702 975 ft 15 kts 32°
2026-05-05 00:33 33.42729 -112.36668 974 ft 0 kts 35°
2026-05-05 00:33 33.42734 -112.36663 974 ft 3 kts 37°
2026-05-05 00:33 33.42760 -112.36636 983 ft 7 kts 41°
2026-05-05 00:33 33.42768 -112.36628 977 ft 0 kts 41°